GW4780 Weather Reports


time (UTC)temp
C
wind
direction
speed
KPH
gust
KPH
rain 1hr
cm
rain 24hr
cm
rain mn
cm
humidity
%
barometer
mb
20260506051004 4 352 4.8 12.9 0.00 0.00 0.00 85 1014.3
20260506050716 4 353 4.8 12.9 0.00 0.00 0.00 85 1014.3
20260506050217 4 355 4.8 9.7 0.00 0.00 0.00 85 1014.3
20260506044718 4 357 4.8 9.7 0.00 0.00 0.00 85 1014.3
20260506044003 4 352 3.2 9.7 0.00 0.00 0.00 85 1014.2
20260506043718 4 346 3.2 8.0 0.00 0.00 0.00 85 1014.3
20260506043004 4 333 3.2 6.4 0.00 0.00 0.00 85 1014.2
20260506042504 4 339 3.2 8.0 0.00 0.00 0.00 85 1014.4
20260506042217 4 343 3.2 8.0 0.00 0.00 0.00 85 1014.3
20260506041718 4 345 3.2 8.0 0.00 0.00 0.00 84 1014.3
20260506041003 5 358 1.6 6.4 0.00 0.00 0.00 84 1014.3
20260506040504 5 358 1.6 8.0 0.00 0.00 0.00 83 1014.3
20260506040004 5 356 1.6 8.0 0.00 0.00 0.00 83 1014.4
20260506035503 5 357 3.2 8.0 0.00 0.00 0.00 83 1014.4
20260506035217 5 358 3.2 8.0 0.00 0.00 0.00 83 1014.3
20260506034503 5 360 3.2 8.0 0.00 0.00 0.00 82 1014.4
20260506034003 5 357 3.2 6.4 0.00 0.00 0.00 82 1014.4
20260506033503 6 353 3.2 11.3 0.00 0.00 0.00 82 1014.4
20260506033005 6 348 3.2 11.3 0.00 0.00 0.00 81 1014.4
20260506032504 6 348 3.2 8.0 0.00 0.00 0.00 81 1014.5
20260506032003 6 356 3.2 8.0 0.00 0.00 0.00 82 1014.5
20260506031503 6 359 3.2 8.0 0.00 0.00 0.00 82 1014.5
20260506031004 6 2 3.2 8.0 0.00 0.00 0.00 82 1014.5
20260506030503 6 6 3.2 8.0 0.00 0.00 0.00 82 1014.6
20260506030004 6 359 3.2 8.0 0.00 0.00 0.00 81 1014.5
20260506025504 6 2 3.2 14.5 0.00 0.00 0.00 81 1014.5
20260506025003 6 4 4.8 14.5 0.00 0.00 0.00 81 1014.4
20260506024504 6 1 3.2 9.7 0.00 0.00 0.00 82 1014.4
20260506024218 6 1 4.8 8.0 0.00 0.00 0.00 82 1014.4
20260506023717 6 359 4.8 14.5 0.00 0.00 0.00 81 1014.5
20260506023004 6 356 4.8 14.5 0.00 0.00 0.00 81 1014.5
20260506022503 6 356 4.8 14.5 0.00 0.00 0.00 81 1014.5
20260506022003 6 357 6.4 14.5 0.00 0.00 0.00 81 1014.4
20260506021503 6 358 6.4 14.5 0.00 0.00 0.00 81 1014.5
20260506021003 6 2 4.8 16.1 0.00 0.00 0.00 81 1014.5
20260506020717 6 2 4.8 16.1 0.00 0.00 0.00 81 1014.5
20260506020218 6 358 6.4 20.9 0.00 0.00 0.00 81 1014.6
20260506015504 6 4 4.8 20.9 0.00 0.00 0.00 81 1014.6
20260506015003 6 7 3.2 11.3 0.00 0.00 0.00 81 1014.6
20260506014504 6 4 4.8 11.3 0.00 0.00 0.00 81 1014.6
20260506014004 6 6 4.8 11.3 0.00 0.00 0.00 81 1014.6
20260506013719 6 10 4.8 11.3 0.00 0.00 0.00 81 1014.6
20260506013004 7 2 4.8 14.5 0.00 0.00 0.00 81 1014.7
20260506012504 7 1 4.8 14.5 0.00 0.00 0.00 81 1014.6
20260506012218 7 360 4.8 14.5 0.00 0.00 0.00 80 1014.7
20260506011504 7 2 4.8 14.5 0.00 0.00 0.00 80 1014.7
20260506011003 7 355 6.4 16.1 0.00 0.00 0.00 80 1014.7
20260506010503 7 357 6.4 16.1 0.00 0.00 0.00 80 1014.7
20260506010003 7 2 4.8 17.7 0.00 0.00 0.00 80 1014.7
20260506005504 7 6 4.8 17.7 0.00 0.00 0.00 80 1014.7
20260506005003 7 4 3.2 12.9 0.00 0.00 0.00 79 1014.6
20260506004504 7 356 4.8 12.9 0.00 0.00 0.00 79 1014.7
20260506004004 7 4 4.8 14.5 0.00 0.00 0.00 79 1014.7
20260506003503 7 9 4.8 14.5 0.00 0.00 0.00 79 1014.7
20260506003003 7 2 4.8 14.5 0.00 0.00 0.00 78 1014.8
20260506002504 7 6 4.8 16.1 0.00 0.00 0.00 78 1014.9
20260506002004 7 8 6.4 17.7 0.00 0.00 0.00 78 1014.9
20260506001504 7 3 6.4 17.7 0.00 0.00 0.00 78 1014.9
20260506001218 7 359 4.8 14.5 0.00 0.00 0.00 78 1014.8
20260506000503 7 358 4.8 14.5 0.00 0.00 0.00 77 1014.8
20260506000003 7 358 3.2 12.9 0.00 0.00 0.00 78 1014.8
20260505235504 7 8 4.8 12.9 0.00 0.00 0.00 77 1014.8
20260505235003 7 5 6.4 14.5 0.00 0.00 0.00 77 1014.9
20260505234504 7 359 6.4 14.5 0.00 0.00 0.00 77 1014.8
20260505234003 7 6 4.8 12.9 0.00 0.00 0.00 76 1014.8
20260505233503 7 12 4.8 9.7 0.00 0.00 0.00 76 1014.9
20260505233219 7 12 4.8 12.9 0.00 0.00 0.00 76 1014.9
20260505232504 7 8 4.8 14.5 0.00 0.00 0.00 76 1014.9
20260505232003 7 5 4.8 14.5 0.00 0.00 0.00 75 1015.0
20260505231503 7 7 4.8 12.9 0.00 0.00 0.00 75 1015.0
20260505231004 7 9 6.4 14.5 0.00 0.00 0.00 75 1015.0
20260505230503 7 11 6.4 14.5 0.00 0.00 0.00 74 1015.1
20260505230003 7 7 6.4 12.9 0.00 0.00 0.00 74 1015.1
20260505225718 7 5 6.4 19.3 0.00 0.00 0.00 74 1015.0
20260505225004 7 8 4.8 19.3 0.00 0.00 0.00 74 1015.1
20260505224503 7 10 4.8 12.9 0.00 0.00 0.00 74 1015.1
20260505224219 7 14 6.4 16.1 0.00 0.00 0.00 73 1015.0
20260505223504 8 15 6.4 17.7 0.00 0.00 0.00 73 1015.0
20260505223219 7 13 6.4 17.7 0.00 0.00 0.00 73 1015.0
20260505222503 8 8 6.4 19.3 0.00 0.00 0.00 72 1015.1
20260505222004 8 10 8.0 19.3 0.00 0.00 0.00 72 1015.0
20260505221504 8 10 6.4 17.7 0.00 0.00 0.00 72 1015.0
20260505221004 8 1 6.4 17.7 0.00 0.00 0.00 72 1015.1
20260505220503 8 359 6.4 17.7 0.00 0.00 0.00 72 1015.1
20260505220217 8 6 6.4 17.7 0.00 0.00 0.00 72 1015.1
20260505215503 8 13 6.4 16.1 0.00 0.00 0.00 72 1015.1
20260505215003 8 16 6.4 16.1 0.00 0.00 0.00 72 1015.2
20260505214503 8 19 6.4 16.1 0.00 0.00 0.00 72 1015.2
20260505214218 8 20 6.4 17.7 0.00 0.00 0.00 73 1015.3
20260505213717 8 23 8.0 17.7 0.00 0.00 0.00 73 1015.3
20260505213004 8 29 8.0 19.3 0.00 0.00 0.00 73 1015.1
20260505212504 8 25 8.0 19.3 0.00 0.00 0.00 74 1015.2
20260505212003 8 21 8.0 19.3 0.00 0.00 0.00 75 1015.2
20260505211504 8 12 8.0 19.3 0.00 0.00 0.00 75 1015.2
20260505211218 8 11 6.4 19.3 0.00 0.00 0.00 76 1015.1
20260505210503 8 24 4.8 16.1 0.00 0.00 0.00 76 1015.1
20260505210218 8 20 4.8 16.1 0.00 0.00 0.00 77 1015.1
20260505205504 9 11 4.8 14.5 0.00 0.00 0.00 77 1015.1
20260505205003 9 12 4.8 14.5 0.00 0.00 0.00 76 1015.1
20260505204503 9 18 3.2 11.3 0.00 0.00 0.00 76 1015.0
20260505204003 9 33 1.6 6.4 0.00 0.00 0.00 76 1015.1
20260505203503 9 33 3.2 16.1 0.00 0.00 0.00 75 1015.0
20260505203004 9 32 3.2 16.1 0.00 0.00 0.00 75 1015.0
20260505202503 9 45 3.2 11.3 0.00 0.00 0.00 74 1015.0
20260505202003 9 47 3.2 11.3 0.00 0.00 0.00 73 1014.9
20260505201504 9 38 3.2 9.7 0.00 0.00 0.00 72 1014.8
20260505201003 10 44 3.2 11.3 0.00 0.00 0.00 72 1014.7
20260505200504 10 40 3.2 12.9 0.00 0.00 0.00 72 1014.7
20260505200003 10 29 1.6 12.9 0.00 0.00 0.00 72 1014.7
20260505195503 10 34 1.6 11.3 0.00 0.00 0.00 72 1014.6
20260505195003 10 39 3.2 11.3 0.00 0.00 0.00 71 1014.6
20260505194503 10 36 3.2 9.7 0.00 0.00 0.00 71 1014.5
20260505194003 10 36 3.2 9.7 0.00 0.00 0.00 71 1014.5
20260505193503 10 39 4.8 19.3 0.00 0.00 0.00 71 1014.5
20260505193004 10 35 4.8 19.3 0.00 0.00 0.00 71 1014.4
20260505192504 10 34 4.8 14.5 0.00 0.00 0.00 71 1014.4
20260505192003 10 37 4.8 19.3 0.00 0.00 0.00 72 1014.3
20260505191503 10 30 4.8 19.3 0.00 0.00 0.00 73 1014.2
20260505191003 10 19 4.8 12.9 0.00 0.00 0.00 78 1014.2
20260505190717 10 22 4.8 12.9 0.00 0.00 0.00 78 1014.1
20260505190003 10 28 3.2 8.0 0.00 0.00 0.00 79 1014.0
20260505185504 10 26 4.8 11.3 0.00 0.00 0.00 79 1014.0
20260505185218 10 30 4.8 11.3 0.00 0.00 0.00 79 1014.0
20260505184503 10 31 4.8 14.5 0.00 0.00 0.00 79 1014.0
20260505184003 10 30 4.8 14.5 0.00 0.00 0.00 79 1014.0
20260505183504 10 34 4.8 14.5 0.00 0.00 0.00 78 1013.9
20260505183003 11 29 6.4 14.5 0.00 0.00 0.00 78 1013.8
20260505182504 11 32 4.8 14.5 0.00 0.00 0.00 78 1013.8
20260505182003 11 38 4.8 11.3 0.00 0.00 0.00 78 1013.7
20260505181503 11 38 4.8 14.5 0.00 0.00 0.00 78 1013.7
20260505181003 11 40 4.8 14.5 0.00 0.00 0.00 77 1013.7
20260505180503 11 29 6.4 19.3 0.00 0.00 0.00 77 1013.7
20260505180003 11 23 6.4 19.3 0.00 0.00 0.00 76 1013.7
20260505175718 11 22 4.8 19.3 0.00 0.00 0.00 77 1013.7
20260505175003 11 28 6.4 17.7 0.00 0.00 0.00 76 1013.7
20260505174504 11 21 6.4 19.3 0.00 0.00 0.00 76 1013.7
20260505174217 11 19 6.4 19.3 0.00 0.00 0.00 76 1013.6
20260505173503 11 24 8.0 19.3 0.00 0.00 0.00 75 1013.6
20260505173003 11 33 8.0 19.3 0.00 0.00 0.00 74 1013.6
20260505172504 11 34 8.0 19.3 0.00 0.00 0.00 74 1013.6
20260505172003 12 35 8.0 19.3 0.00 0.00 0.00 74 1013.5
20260505171503 12 28 8.0 17.7 0.00 0.00 0.00 74 1013.6
20260505171004 12 23 8.0 19.3 0.00 0.00 0.00 73 1013.6
20260505170503 12 26 8.0 19.3 0.00 0.00 0.00 72 1013.5
20260505170003 12 29 8.0 17.7 0.00 0.00 0.00 71 1013.4
20260505165503 13 25 8.0 17.7 0.00 0.00 0.00 69 1013.4
20260505165003 13 4 8.0 16.1 0.00 0.00 0.00 65 1013.3
20260505164503 13 353 6.4 14.5 0.00 0.00 0.00 55 1013.3
20260505164003 13 354 6.4 14.5 0.00 0.00 0.00 55 1013.2
20260505163504 13 351 6.4 12.9 0.00 0.00 0.00 55 1013.2
20260505163004 13 357 6.4 16.1 0.00 0.00 0.00 56 1013.2
20260505162503 13 358 6.4 16.1 0.00 0.00 0.00 56 1013.3
20260505162004 13 356 6.4 14.5 0.00 0.00 0.00 57 1013.4
20260505161503 13 354 6.4 12.9 0.00 0.00 0.00 57 1013.3
20260505161003 13 358 6.4 14.5 0.00 0.00 0.00 56 1013.3
20260505160504 13 4 6.4 17.7 0.00 0.00 0.00 57 1013.2
20260505153004 14 1 6.4 14.5 0.00 0.00 0.00 56 1013.4
20260505152503 14 358 6.4 14.5 0.00 0.00 0.00 55 1013.3
20260505152004 15 360 6.4 14.5 0.00 0.00 0.00 56 1013.3
20260505151717 15 1 8.0 19.3 0.00 0.00 0.00 56 1013.3
20260505151004 15 3 8.0 19.3 0.00 0.00 0.00 54 1013.2
20260505150504 15 9 4.8 11.3 0.00 0.00 0.00 56 1013.2
20260505140503 15 10 4.8 11.3 0.00 0.00 0.00 54 1013.1
20260505125004 14 355 6.4 14.5 0.00 0.00 0.00 57 1013.4
20260505124504 14 347 4.8 14.5 0.00 0.00 0.00 57 1013.4
20260505124004 14 342 4.8 12.9 0.00 0.00 0.00 56 1013.4
20260505123503 14 343 6.4 16.1 0.00 0.00 0.00 56 1013.5
20260505123003 14 345 6.4 16.1 0.00 0.00 0.00 56 1013.5
20260505122503 14 344 4.8 12.9 0.00 0.00 0.00 57 1013.5
20260505122004 14 346 4.8 11.3 0.00 0.00 0.00 56 1013.4
20260505121504 14 353 4.8 11.3 0.00 0.00 0.00 57 1013.4
20260505121004 14 356 4.8 11.3 0.00 0.00 0.00 57 1013.4
20260505120718 14 349 4.8 11.3 0.00 0.00 0.00 56 1013.4
20260505120004 14 344 3.2 11.3 0.00 0.00 0.00 58 1013.4
20260505115504 14 349 3.2 12.9 0.00 0.00 0.00 59 1013.4
20260505115217 14 343 4.8 12.9 0.00 0.00 0.00 57 1013.4
20260505114503 14 343 4.8 12.9 0.00 0.00 0.00 57 1013.5
20260505114217 14 341 4.8 12.9 0.00 0.00 0.00 58 1013.5
20260505113504 14 346 3.2 11.3 0.00 0.00 0.00 58 1013.5
20260505113004 14 2 3.2 9.7 0.00 0.00 0.00 57 1013.5
20260505112503 14 22 3.2 8.0 0.00 0.00 0.00 60 1013.5
20260505112004 13 10 3.2 11.3 0.00 0.00 0.00 60 1013.6
20260505111504 13 342 3.2 14.5 0.00 0.00 0.00 60 1013.5
20260505111003 13 341 4.8 14.5 0.00 0.00 0.00 59 1013.5
20260505110503 13 352 4.8 12.9 0.00 0.00 0.00 59 1013.7
20260505102004 14 17 4.8 8.0 0.00 0.00 0.00 62 1013.8
20260505101503 14 3 6.4 14.5 0.00 0.00 0.00 61 1013.7
20260505101218 14 355 6.4 14.5 0.00 0.00 0.00 61 1013.8
20260505100504 14 358 4.8 17.7 0.00 0.00 0.00 62 1013.9
20260505100218 14 7 4.8 17.7 0.00 0.00 0.00 61 1013.8
20260505095503 14 354 6.4 16.1 0.00 0.00 0.00 59 1013.9
20260505095004 14 357 6.4 16.1 0.00 0.00 0.00 58 1013.9
20260505094717 15 355 6.4 12.9 0.00 0.00 0.00 59 1013.9
20260505094004 14 348 4.8 12.9 0.00 0.00 0.00 61 1013.9
20260505093504 14 360 4.8 14.5 0.00 0.00 0.00 61 1013.9
20260505093003 14 20 4.8 14.5 0.00 0.00 0.00 61 1013.9
20260505092719 14 11 4.8 14.5 0.00 0.00 0.00 62 1013.8
20260505092218 13 356 4.8 12.9 0.00 0.00 0.00 65 1013.9
20260505091503 13 357 4.8 14.5 0.00 0.00 0.00 64 1013.8
20260505091218 13 353 6.4 14.5 0.00 0.00 0.00 64 1013.7
20260505090504 13 343 6.4 12.9 0.00 0.00 0.00 64 1013.8
20260505090005 13 336 4.8 12.9 0.00 0.00 0.00 64 1013.8
20260505085719 13 342 4.8 14.5 0.00 0.00 0.00 65 1013.7
20260505085003 13 358 4.8 14.5 0.00 0.00 0.00 66 1013.9
20260505084503 13 6 4.8 11.3 0.00 0.00 0.00 68 1013.9
20260505084004 13 4 6.4 12.9 0.00 0.00 0.00 68 1013.8
20260505083503 12 6 6.4 16.1 0.00 0.00 0.00 69 1013.8
20260505083004 12 11 6.4 16.1 0.00 0.00 0.00 68 1013.9
20260505082503 12 1 6.4 14.5 0.00 0.00 0.00 70 1014.0
20260505082004 12 360 6.4 14.5 0.00 0.00 0.00 72 1014.0
20260505081504 12 5 4.8 14.5 0.00 0.00 0.00 72 1014.0
20260505081003 12 359 4.8 12.9 0.00 0.00 0.00 74 1014.0
20260505080716 11 358 4.8 12.9 0.00 0.00 0.00 75 1014.0
20260505080004 11 8 6.4 12.9 0.00 0.00 0.00 77 1014.0
20260505075716 11 7 6.4 12.9 0.00 0.00 0.00 77 1014.0
20260505075004 10 6 6.4 14.5 0.00 0.00 0.00 81 1014.1
20260505074503 10 4 4.8 14.5 0.00 0.00 0.00 82 1014.0
20260505074003 9 359 4.8 12.9 0.00 0.00 0.00 85 1014.0
20260505073716 8 357 4.8 12.9 0.00 0.00 0.00 86 1014.0
20260505073003 8 354 4.8 12.9 0.00 0.00 0.00 89 1013.9
20260505072503 7 357 6.4 12.9 0.00 0.00 0.00 92 1013.9
20260505072004 7 349 4.8 12.9 0.00 0.00 0.00 96 1013.9
20260505071718 7 321 3.2 12.9 0.00 0.00 0.00 97 1014.0
20260505071004 6 234 1.6 4.8 0.00 0.00 0.00 97 1014.1
20260505070504 6 241 0.0 3.2 0.00 0.00 0.00 97 1014.1
20260505070004 6 211 0.0 3.2 0.00 0.00 0.00 97 1014.1
20260505065504 6 163 0.0 1.6 0.00 0.00 0.00 97 1014.1
20260505065004 6 0 0.0 0.0 0.00 0.00 0.00 97 1014.1
20260505064503 6 0 0.0 0.0 0.00 0.00 0.00 97 1014.1
20260505064004 6 0 0.0 0.0 0.00 0.00 0.00 97 1014.1
20260505063718 6 0 0.0 0.0 0.00 0.00 0.00 97 1014.1
20260505063004 6 0 0.0 0.0 0.00 0.00 0.00 97 1014.1
20260505062503 6 0 0.0 0.0 0.00 0.00 0.00 97 1014.1
20260505062004 6 0 0.0 0.0 0.00 0.00 0.00 97 1014.1
20260505061503 5 0 0.0 0.0 0.00 0.00 0.00 97 1014.1
20260505061004 5 156 0.0 1.6 0.00 0.00 0.00 97 1014.1
20260505060503 5 156 0.0 1.6 0.00 0.00 0.00 97 1014.2
20260505060004 5 156 0.0 1.6 0.00 0.00 0.00 97 1014.2
20260505055503 5 156 0.0 1.6 0.00 0.00 0.00 97 1014.2
20260505055003 5 156 0.0 1.6 0.00 0.00 0.00 97 1014.1
20260505054503 5 156 0.0 1.6 0.00 0.00 0.00 97 1014.1
20260505054004 4 157 0.0 1.6 0.00 0.00 0.00 96 1014.1
20260505053503 4 156 0.0 1.6 0.00 0.00 0.00 96 1014.1
20260505053216 4 163 0.0 3.2 0.00 0.00 0.00 96 1014.1
20260505052504 4 176 0.0 3.2 0.00 0.00 0.00 96 1014.1
20260505052003 3 193 0.0 1.6 0.00 0.00 0.00 96 1014.1